This demonstration page uses our WeatherBlox Daily Observations layout. Learn more.

39.51506, -84.39828

Hourly Observations for November 30, 2019

Temp ( °F °C ) Dew Point ( °F °C ) Humidity (%) Winds ( mph kmh ) Pressure ( in mb ) Visibility ( mi km ) Precip ( " mm )
12:15 am 00:15 Cloudy 40 4.2 32 0.2 75 75 NE 7 11 30.17 1022 10 16.0934 0 0
12:35 am 00:35 Cloudy 40 4.2 32 0.2 75 75 NE 5 7 30.17 1022 10 16.0934 0 0
12:55 am 00:55 Cloudy 40 4.2 32 0.2 75 75 ENE 5 7 30.16 1021 10 16.0934 0 0
1:15 am 01:15 Cloudy 40 4.2 32 0.1 75 75 E 7 11 30.13 1020 10 16.0934 0 0
1:35 am 01:35 Cloudy 39 3.9 33 0.4 78 78 ESE 6 9 30.1 1019 10 16.0934 0 0
1:55 am 01:55 Cloudy 39 4 33 0.4 78 78 ESE 3 6 30.12 1020 10 16.0934 0 0
2:15 am 02:15 Cloudy 39 4 33 0.6 79 79 ENE 5 7 30.12 1020 10 16.0934 0 0
2:35 am 02:35 Cloudy with Light Rain 40 4.2 33 0.4 77 77 Calm 30.14 1021 10 16.0934 0 0
2:55 am 02:55 Cloudy with Light Rain 39 3.8 34 1.1 83 83 NE 3 6 30.16 1021 7 11.26538 0 0
3:15 am 03:15 Cloudy with Light Rain 38 3.6 35 1.6 87 87 NNE 5 7 30.14 1021 7 11.26538 0 0
3:35 am 03:35 Cloudy with Light Rain 38 3.3 36 2 91 91 E 5 7 30.11 1020 5 8.0467 0 0
3:55 am 03:55 Cloudy with Light Rain 38 3.2 36 2.2 93 93 E 5 7 30.09 1019 4 6.43736 0 0
4:15 am 04:15 Cloudy with Light Rain 38 3.1 36 2.2 94 94 E 5 7 30.07 1018 3.5 5.63269 0 0
4:35 am 04:35 Cloudy with Light Rain 38 3.1 36 2 93 93 ESE 3 6 30.07 1018 4 6.43736 0 0
4:55 am 04:55 Cloudy with Light Rain 38 3.1 36 2.2 94 94 Calm 30.07 1018 4 6.43736 0 0
5:15 am 05:15 Cloudy with Light Rain 38 3.2 36 2.3 94 94 Calm 30.09 1019 3.5 5.63269 0 0
5:35 am 05:35 Cloudy with Light Rain 38 3.1 36 2.3 95 95 Calm 30.09 1019 3 4.82802 0 0
5:55 am 05:55 Cloudy with Rain 37 3 36 2.3 95 95 Calm 30.09 1019 1.75 2.816345 0 0
6:15 am 06:15 Cloudy with Light Rain 37 3 36 2.4 96 96 ENE 3 6 30.09 1019 2.5 4.02335 0 0
6:35 am 06:35 Cloudy with Rain 37 3 37 2.5 97 97 E 3 6 30.08 1019 2.5 4.02335 0 0
6:55 am 06:55 Cloudy with Light Rain 37 3 37 2.6 97 97 E 5 7 30.08 1019 3 4.82802 0 0
7:15 am 07:15 Cloudy with Light Rain 37 3 37 2.5 97 97 E 5 7 30.07 1018 3 4.82802 0 0
7:35 am 07:35 Cloudy with Light Rain 37 3 37 2.5 97 97 E 6 9 30.06 1018 4 6.43736 0 0
7:55 am 07:55 Cloudy with Light Rain 38 3.1 37 2.6 97 97 ENE 6 9 30.06 1018 3.5 5.63269 0 0
8:15 am 08:15 Cloudy with Light Rain 38 3.1 37 2.5 96 96 E 5 7 30.05 1017 4 6.43736 0 0
8:35 am 08:35 Cloudy with Light Rain 38 3.3 37 2.7 96 96 E 6 9 30.03 1017 5 8.0467 0 0
8:55 am 08:55 Cloudy with Light Drizzle 38 3.4 37 2.6 95 95 ESE 3 6 30.02 1016 10 16.0934 0 0
9:15 am 09:15 Cloudy 39 3.7 37 2.7 93 93 ESE 10 17 30.01 1016 10 16.0934 0 0
9:35 am 09:35 Cloudy 39 3.7 37 2.6 93 93 ESE 7 11 30.02 1016 10 16.0934 0 0
9:55 am 09:55 Cloudy 39 3.8 37 2.6 92 92 E 6 9 30 1016 10 16.0934 0 0
10:15 am 10:15 Cloudy with Light Rain 39 4 37 3 93 93 E 8 13 29.98 1015 10 16.0934 0 0
10:35 am 10:35 Cloudy 39 4 37 3 93 93 E 8 13 29.98 1015 10 16.0934 0 0
1:15 pm 13:15 Cloudy with Mist and Fog 40 4.3 38 3.5 95 95 ENE 12 19 29.89 1012 3 4.82802 0 0
1:35 pm 13:35 Cloudy with Mist and Fog 40 4.2 38 3.6 96 96 ENE 12 19 29.9 1013 1.75 2.816345 0 0
1:55 pm 13:55 Cloudy with Drizzle 40 4.2 39 3.7 97 97 ENE 9 15 29.9 1013 1.25 2.011675 0 0
2:15 pm 14:15 Cloudy with Light Rain 40 4.2 39 3.8 97 97 ENE 6 9 29.9 1013 1.5 2.41401 0 0
2:35 pm 14:35 Cloudy with Rain 40 4.2 39 3.7 97 97 ESE 6 9 29.9 1013 2.5 4.02335 0 0
2:55 pm 14:55 Cloudy with Rain 40 4.5 39 4 97 97 ENE 6 9 29.89 1012 3.5 5.63269 0 0
3:15 pm 15:15 Cloudy with Light Rain 40 4.6 39 4 96 96 ENE 9 15 29.88 1012 5 8.0467 0 0
3:35 pm 15:35 Cloudy with Light Rain 40 4.5 39 4 97 97 E 8 13 29.85 1011 7 11.26538 0 0
3:55 pm 15:55 Cloudy 40 4.5 39 3.8 95 95 E 12 19 29.81 1010 10 16.0934 0 0
4:15 pm 16:15 Cloudy 40 4.6 39 3.7 94 94 E 15 24 29.76 1008 10 16.0934 0 0
4:35 pm 16:35 Cloudy 40 4.7 39 3.7 93 93 ESE 12 19 29.77 1008 10 16.0934 0 0
4:55 pm 16:55 Cloudy 41 5 39 3.7 91 91 S 13 20 29.84 1011 10 16.0934 0 0
5:15 pm 17:15 Cloudy with Rain 41 5 39 3.8 92 92 SSE 8 13 29.83 1010 5 8.0467 0 0
5:35 pm 17:35 Cloudy with Light Rain 41 4.8 39 3.9 94 94 E 7 11 29.79 1009 7 11.26538 0 0
5:55 pm 17:55 Cloudy with Light Rain 41 4.8 39 4 95 95 E 9 15 29.74 1007 10 16.0934 0 0
6:15 pm 18:15 Cloudy with Light Rain 41 5 40 4.2 95 95 E 5 7 29.72 1006 10 16.0934 0 0
6:35 pm 18:35 Cloudy with Rain 41 5.1 40 4.3 95 95 ENE 7 11 29.72 1006 7 11.26538 0 0
6:55 pm 18:55 Cloudy 41 5.1 40 4.4 95 95 Calm 29.73 1007 10 16.0934 0 0
7:15 pm 19:15 Cloudy 41 5.2 40 4.5 95 95 Calm 29.73 1007 10 16.0934 0 0
7:35 pm 19:35 Cloudy 42 5.3 40 4.7 96 96 SE 5 7 29.73 1007 10 16.0934 0 0
7:55 pm 19:55 Cloudy 42 5.7 41 4.9 95 95 SE 9 15 29.72 1006 10 16.0934 0 0
8:15 pm 20:15 Cloudy 42 5.7 41 4.9 95 95 Calm 29.72 1006 10 16.0934 0 0
8:35 pm 20:35 Cloudy 42 5.8 41 5 95 95 ESE 6 9 29.72 1006 10 16.0934 0 0
8:55 pm 20:55 Cloudy with Mist and Fog 42 5.8 41 5.2 96 96 E 3 6 29.72 1006 3.5 5.63269 0 0
9:15 pm 21:15 Cloudy with Mist and Fog 42 5.7 42 5.3 97 97 Calm 29.68 1005 3.5 5.63269 0 0
9:35 pm 21:35 Cloudy with Mist and Fog 42 5.7 42 5.4 98 98 NE 3 6 29.66 1004 3.5 5.63269 0 0
9:55 pm 21:55 Cloudy with Mist and Fog 42 5.8 42 5.5 98 98 ENE 5 7 29.64 1004 5 8.0467 0 0
10:15 pm 22:15 Cloudy with Mist and Fog 43 5.9 42 5.6 98 98 Calm 29.64 1004 7 11.26538 0 0
10:35 pm 22:35 Cloudy with Mist and Fog 43 5.9 42 5.7 99 99 ENE 3 6 29.61 1003 5 8.0467 0 0
10:55 pm 22:55 Cloudy with Mist and Fog 43 6.1 43 5.9 99 99 Calm 29.61 1003 5 8.0467 0 0
11:15 pm 23:15 Cloudy 44 6.5 43 6.3 99 99 Calm 29.61 1003 7 11.26538 0 0
11:35 pm 23:35 Cloudy with Mist and Fog 43 6.2 43 6 99 99 ENE 3 6 29.58 1002 5 8.0467 0 0
11:55 pm 23:55 Cloudy 45 7 44 6.8 99 99 Calm 29.57 1001 7 11.26538 0 0

Powered by AerisWeather